SHT12K EGLL-EGNT

Flight info

Callsign SHT12K
Flight time 0h 45m
Altitude 30000
Route UMLAT1G UMLAT T418 WELIN T420 AKUPA UY250 RIMTO RIMTO2N
Aircraft A319/M-SDE3FGIJ1KRWXY/LB1

Departure

Time 2026-05-04 10:26
Airport London Heathrow Airport (EGLL)

Arrival

Time 2026-05-04 11:12
Airport Newcastle International Airport (EGNT)
Time Latitude Longitude Altitude Speed Heading
2026-05-04 09:53 51.47049 -0.48587 89 ft 0 kts 270°
2026-05-04 10:08 51.47061 -0.48472 87 ft 4 kts 185°
2026-05-04 10:08 51.47085 -0.48472 88 ft 2 kts 179°
2026-05-04 10:08 51.47087 -0.48472 88 ft 0 kts 179°
2026-05-04 10:13 51.47081 -0.48471 86 ft 2 kts 179°
2026-05-04 10:13 51.47055 -0.48471 86 ft 5 kts 179°
2026-05-04 10:14 51.47013 -0.48471 86 ft 7 kts 179°
2026-05-04 10:14 51.46955 -0.48470 88 ft 9 kts 179°
2026-05-04 10:16 51.46654 -0.47966 86 ft 17 kts 90°
2026-05-04 10:16 51.46655 -0.47762 86 ft 20 kts 89°
2026-05-04 10:16 51.46655 -0.47528 86 ft 22 kts 91°
2026-05-04 10:16 51.46656 -0.47267 86 ft 25 kts 90°
2026-05-04 10:17 51.46657 -0.46975 88 ft 27 kts 90°
2026-05-04 10:17 51.46658 -0.46671 86 ft 20 kts 90°
2026-05-04 10:19 51.46663 -0.45073 86 ft 16 kts 89°
2026-05-04 10:19 51.46664 -0.44885 87 ft 18 kts 89°
2026-05-04 10:19 51.46666 -0.44667 87 ft 21 kts 90°
2026-05-04 10:19 51.46665 -0.44449 86 ft 19 kts 89°
2026-05-04 10:20 51.46666 -0.44233 86 ft 21 kts 90°
2026-05-04 10:20 51.46667 -0.44030 86 ft 14 kts 89°
2026-05-04 10:20 51.46668 -0.43880 86 ft 9 kts 89°
2026-05-04 10:20 51.46668 -0.43767 86 ft 11 kts 90°
2026-05-04 10:21 51.46667 -0.43633 86 ft 8 kts 99°
2026-05-04 10:21 51.46613 -0.43606 86 ft 10 kts 181°
2026-05-04 10:21 51.46540 -0.43604 87 ft 11 kts 178°
2026-05-04 10:21 51.46493 -0.43616 90 ft 3 kts 264°
2026-05-04 10:22 51.46494 -0.43625 89 ft 0 kts 271°
2026-05-04 10:25 51.46494 -0.43638 86 ft 7 kts 271°
2026-05-04 10:26 51.46495 -0.44047 86 ft 67 kts 269°
2026-05-04 10:26 51.46490 -0.45108 88 ft 122 kts 270°
2026-05-04 10:26 51.46486 -0.46753 130 ft 167 kts 270°
2026-05-04 10:26 51.46471 -0.48630 686 ft 169 kts 269°
2026-05-04 10:27 51.46528 -0.50543 1220 ft 175 kts 283°
2026-05-04 10:27 51.47007 -0.52407 1622 ft 191 kts 299°
2026-05-04 10:27 51.47653 -0.54425 1918 ft 217 kts 298°
2026-05-04 10:27 51.48382 -0.56696 2380 ft 242 kts 298°
2026-05-04 10:28 51.49186 -0.59202 3042 ft 260 kts 298°
2026-05-04 10:28 51.49901 -0.61442 3882 ft 265 kts 297°
2026-05-04 10:28 51.50750 -0.64094 4917 ft 268 kts 297°
2026-05-04 10:28 51.51864 -0.66513 5685 ft 275 kts 319°
2026-05-04 10:29 51.53556 -0.67898 5951 ft 276 kts 347°
2026-05-04 10:29 51.55468 -0.68178 5996 ft 276 kts 357°
2026-05-04 10:29 51.57383 -0.68352 6008 ft 275 kts 356°
2026-05-04 10:29 51.59303 -0.68546 6336 ft 277 kts 356°
2026-05-04 10:30 51.61209 -0.68750 7225 ft 279 kts 355°
2026-05-04 10:30 51.63171 -0.68964 8097 ft 284 kts 355°
2026-05-04 10:30 51.65162 -0.69184 8983 ft 289 kts 355°
2026-05-04 10:30 51.67176 -0.69410 9866 ft 293 kts 355°
2026-05-04 10:31 51.69260 -0.69647 10379 ft 310 kts 355°
2026-05-04 10:31 51.71497 -0.69904 10655 ft 334 kts 355°
2026-05-04 10:32 51.85839 -0.71511 14636 ft 365 kts 355°
2026-05-04 10:33 51.88391 -0.71799 15278 ft 369 kts 355°
2026-05-04 10:33 51.90954 -0.72085 15925 ft 373 kts 355°
2026-05-04 10:33 51.93553 -0.72377 16557 ft 376 kts 355°
2026-05-04 10:33 51.96179 -0.72672 17191 ft 380 kts 355°
2026-05-04 10:34 51.98830 -0.72971 17821 ft 384 kts 355°
2026-05-04 10:34 52.01502 -0.73373 18444 ft 387 kts 349°
2026-05-04 10:34 52.04117 -0.74440 19020 ft 389 kts 340°
2026-05-04 10:34 52.06693 -0.75803 19641 ft 391 kts 340°
2026-05-04 10:35 52.09294 -0.77167 20253 ft 393 kts 340°
2026-05-04 10:35 52.11906 -0.78529 20841 ft 396 kts 340°
2026-05-04 10:35 52.14540 -0.79900 21419 ft 399 kts 339°
2026-05-04 10:35 52.17188 -0.81279 22000 ft 401 kts 339°
2026-05-04 10:36 52.19820 -0.82656 22536 ft 404 kts 339°
2026-05-04 10:36 52.22504 -0.84066 23078 ft 406 kts 339°
2026-05-04 10:36 52.25133 -0.85754 23596 ft 406 kts 330°
2026-05-04 10:36 52.27576 -0.88039 24028 ft 406 kts 325°
2026-05-04 10:37 52.29998 -0.90450 24414 ft 410 kts 326°
2026-05-04 10:37 52.32449 -0.92897 24803 ft 414 kts 326°
2026-05-04 10:37 52.34953 -0.95399 25227 ft 417 kts 326°
2026-05-04 10:37 52.37440 -0.97881 25633 ft 420 kts 326°
2026-05-04 10:39 52.53765 -1.08729 28080 ft 443 kts
2026-05-04 10:39 52.56853 -1.08491 28511 ft 445 kts
2026-05-04 10:39 52.59949 -1.08249 28924 ft 447 kts
2026-05-04 10:40 52.63065 -1.08013 29278 ft 449 kts
2026-05-04 10:40 52.66200 -1.07779 29668 ft 451 kts
2026-05-04 10:40 52.69349 -1.07549 29985 ft 455 kts
2026-05-04 10:41 52.75529 -1.07662 30077 ft 435 kts 351°
2026-05-04 10:41 52.81415 -1.09433 30079 ft 425 kts 351°
2026-05-04 10:42 52.87218 -1.11192 30080 ft 423 kts 351°
2026-05-04 10:42 52.93016 -1.12958 30078 ft 423 kts 351°
2026-05-04 10:43 52.98807 -1.14719 30076 ft 423 kts 351°
2026-05-04 10:45 53.21752 -1.21783 30085 ft 416 kts 352°
2026-05-04 10:45 53.27441 -1.23537 30083 ft 415 kts 353°
2026-05-04 10:46 53.33105 -1.25293 30090 ft 413 kts 353°
2026-05-04 10:46 53.38748 -1.27050 30090 ft 412 kts 353°
2026-05-04 10:47 53.44405 -1.28330 30083 ft 409 kts 359°
2026-05-04 10:47 53.50076 -1.29016 30078 ft 409 kts 359°
2026-05-04 10:49 53.71254 -1.42787 30073 ft 420 kts 333°
2026-05-04 10:50 53.75415 -1.47014 29946 ft 420 kts 333°
2026-05-04 10:51 53.92596 -1.64601 27041 ft 400 kts 332°
2026-05-04 10:52 53.94966 -1.67033 26539 ft 397 kts 332°
2026-05-04 10:52 53.97324 -1.69460 26040 ft 395 kts 331°
2026-05-04 10:52 53.99665 -1.71875 25560 ft 392 kts 331°
2026-05-04 10:54 54.16624 -1.85611 21418 ft 388 kts
2026-05-04 10:54 54.19329 -1.85070 20823 ft 386 kts 11°
2026-05-04 10:56 54.37696 -1.79314 15439 ft 391 kts
2026-05-04 10:56 54.40355 -1.78474 14857 ft 381 kts
2026-05-04 10:56 54.42908 -1.77663 14385 ft 367 kts
2026-05-04 10:57 54.45404 -1.76868 13740 ft 361 kts
2026-05-04 10:57 54.47833 -1.76094 13223 ft 350 kts
2026-05-04 10:57 54.50188 -1.75344 12747 ft 339 kts
2026-05-04 10:57 54.52480 -1.74616 12278 ft 330 kts
2026-05-04 10:58 54.54716 -1.73905 11708 ft 326 kts
2026-05-04 10:58 54.56965 -1.73191 10862 ft 331 kts
2026-05-04 10:58 54.59191 -1.72469 10546 ft 318 kts
2026-05-04 10:58 54.61299 -1.71790 10426 ft 300 kts
2026-05-04 10:59 54.63307 -1.71149 10197 ft 289 kts
2026-05-04 10:59 54.65254 -1.70530 9937 ft 280 kts
2026-05-04 10:59 54.67128 -1.69936 9801 ft 266 kts
2026-05-04 10:59 54.68907 -1.69367 9656 ft 255 kts
2026-05-04 11:00 54.70632 -1.68816 9367 ft 250 kts
2026-05-04 11:01 54.82351 -1.65050 6778 ft 241 kts
2026-05-04 11:02 54.83996 -1.64524 6412 ft 240 kts
2026-05-04 11:02 54.85605 -1.63774 6050 ft 241 kts 21°
2026-05-04 11:05 55.02809 -1.37812 2509 ft 218 kts 358°
2026-05-04 11:06 55.04238 -1.38393 2515 ft 210 kts 328°
2026-05-04 11:06 55.05438 -1.39794 2515 ft 207 kts 322°
2026-05-04 11:06 55.06619 -1.41237 2514 ft 206 kts 322°
2026-05-04 11:06 55.07758 -1.42732 2505 ft 199 kts 312°
2026-05-04 11:08 55.07575 -1.54661 1899 ft 125 kts 243°
2026-05-04 11:10 55.05050 -1.64230 697 ft 126 kts 242°
2026-05-04 11:12 55.03597 -1.70276 266 ft 14 kts 274°
2026-05-04 11:12 55.03599 -1.70312 266 ft 0 kts 274°
2026-05-04 11:13 55.03599 -1.70313 266 ft 1 kts 274°
2026-05-04 11:13 55.03601 -1.70412 267 ft 12 kts 268°
2026-05-04 11:13 55.03591 -1.70573 267 ft 15 kts 263°
2026-05-04 11:13 55.03596 -1.70757 267 ft 12 kts 274°
2026-05-04 11:14 55.03611 -1.70848 267 ft 6 kts 330°
2026-05-04 11:14 55.03659 -1.70846 267 ft 6 kts
2026-05-04 11:14 55.03672 -1.70844 267 ft 0 kts